This demonstration page uses our WeatherBlox Daily Observations layout. Learn more.

Left ArrowRight Arrow

34.02893, -84.19858

Hourly Observations for November 11, 2022

Temp ( °F °C ) Dew Point ( °F °C ) Humidity (%) Winds ( mph kmh ) Pressure ( in mb ) Visibility ( mi km ) Precip ( " mm )
12:40 am 00:40 Cloudy with Light Rain 63 17.2 61 16.1 93 93 VRB 6 9 29.70 1006 10 16 0.02 0.51
12:53 am 00:53 Cloudy with Light Rain 63 17.2 61 16.1 93 93 NE 6 9 29.68 1005 10 16 0.02 0.51
1:44 am 01:44 Cloudy with Light Rain 63 17.2 62 16.7 97 97 VRB 6 9 29.67 1005 6 10 0.05 1.27
1:53 am 01:53 Cloudy with Light Rain 63 17.2 62 16.7 97 97 NE 8 13 29.65 1004 5 8 0.06 1.52
2:53 am 02:53 Cloudy with Rain 64 17.8 62 16.7 93 93 NE 10 17 29.60 1002 5 8 0.12 3.05
3:26 am 03:26 Cloudy with Rain 64 17.8 63 17.2 96 96 NNE 10 17 29.58 1002 3 4 0.09 2.29
3:34 am 03:34 Cloudy with Rain 64 17.8 63 17.2 96 96 NE 8 13 29.57 1001 3 5 0.12 3.05
3:53 am 03:53 Cloudy with Rain 64 17.8 63 17.2 96 96 NE 10 17 29.56 1001 2 3 0.21 5.33
4:07 am 04:07 Cloudy with Light Rain 64 17.8 63 17.2 96 96 Calm 29.56 1001 4 6 0.03 0.76
4:38 am 04:38 Cloudy with Rain 64 17.8 64 17.8 100 100 VRB 3 6 29.55 1001 3 4 0.12 3.05
4:53 am 04:53 Cloudy with Rain 65 18.3 64 17.8 97 97 NE 7 11 29.54 1000 3 4 0.18 4.57
5:15 am 05:15 Cloudy with Heavy Rain 65 18.3 64 17.8 97 97 VRB 7 11 29.55 1001 1 2 0.27 6.86
5:25 am 05:25 Cloudy with Rain 65 18.3 64 17.8 97 97 VRB 3 6 29.55 1001 2 3 0.31 7.87
5:37 am 05:37 Cloudy with Light Rain 65 18.3 65 18.3 100 100 Calm 29.55 1001 3 5 0.33 8.38
5:53 am 05:53 Cloudy with Light Rain 65 18.3 64 17.8 97 97 Calm 29.54 1000 3 5 0.35 8.89
6:09 am 06:09 Cloudy with Light Rain 66 18.9 65 18.3 96 96 Calm 29.54 1000 5 8 0.02 0.51
6:53 am 06:53 Cloudy with Light Rain 66 18.9 65 18.3 96 96 VRB 6 9 29.53 1000 4 6 0.06 1.52
7:07 am 07:07 Cloudy with Light Rain 66 18.9 64 17.8 93 93 ESE 8 13 29.54 1000 4 6 0.01 0.13
7:14 am 07:14 Cloudy with Light Rain 66 18.9 65 18.3 96 96 Calm 29.54 1000 4 6 0.01 0.13
7:53 am 07:53 Cloudy with Light Rain 66 18.9 65 18.3 96 96 Calm 29.54 1000 4 6 0.05 1.27
8:00 am 08:00 Cloudy with Light Rain 66 18.9 65 18.3 96 96 Calm 29.54 1000 3 5 0.01 0.25
8:07 am 08:07 Cloudy with Light Rain 66 18.9 65 18.3 96 96 Calm 29.54 1000 3 4 0.02 0.51
8:24 am 08:24 Cloudy with Light Rain 66 18.9 65 18.3 96 96 VRB 3 6 29.55 1001 2 3 0.05 1.27
8:32 am 08:32 Cloudy with Light Rain 65 18.3 64 17.8 97 97 VRB 3 6 29.55 1001 3 4 0.05 1.27
8:53 am 08:53 Cloudy with Light Rain 65 18.3 64 17.8 97 97 SE 5 7 29.54 1001 3 4 0.06 1.52
9:00 am 09:00 Cloudy with Light Rain 65 18.3 64 17.8 97 97 SSE 5 7 29.55 1001 2 3 0.01 0.25
9:07 am 09:07 Cloudy with Light Rain 65 18.3 64 17.8 97 97 SE 5 7 29.55 1001 2 3 0.01 0.25
9:27 am 09:27 Cloudy with Light Rain 65 18.3 64 17.8 97 97 SSE 5 7 29.55 1001 3 5 0.02 0.51
9:39 am 09:39 Cloudy with Light Rain 66 18.9 65 18.3 96 96 SSE 3 6 29.56 1001 3 4 0.03 0.76
9:53 am 09:53 Cloudy with Light Rain 66 18.9 65 18.3 96 96 S 3 6 29.55 1001 3 4 0.05 1.27
10:02 am 10:02 Cloudy with Light Rain 66 18.9 65 18.3 96 96 S 3 6 29.56 1001 3 5 0.01 0.25
10:09 am 10:09 Cloudy with Light Rain 66 18.9 65 18.3 96 96 S 3 6 29.56 1001 4 6 0.02 0.51
10:53 am 10:53 Cloudy with Light Rain 66 18.9 65 18.3 96 96 S 3 6 29.56 1001 3 4 0.05 1.27
11:18 am 11:18 Cloudy with Light Rain 66 18.9 65 18.3 96 96 SW 7 11 29.57 1001 7 11 0.01 0.25
11:28 am 11:28 Cloudy with Light Rain 66 18.9 65 18.3 96 96 SSW 6 9 29.57 1001 3 4 0.01 0.25
11:58 am 11:58 Cloudy with Light Rain 67 19.4 66 18.9 97 97 SW 7 11 29.57 1001 8 13 0.01 0.13
12:08 pm 12:08 Cloudy 67 19.4 65 18.3 93 93 W 7 11 29.57 1001 9 14 0.01 0.13
12:20 pm 12:20 Cloudy 68 20 66 18.9 93 93 WSW 9 15 29.56 1001 9 14 0.01 0.13
12:39 pm 12:39 Cloudy with Light Rain 67 19.4 66 18.9 97 97 WSW 9 15 29.57 1001 4 6 0.01 0.25
12:53 pm 12:53 Cloudy with Light Rain 67 19.4 65 18.3 93 93 WSW 12 19 29.56 1001 3 4 0.01 0.25
1:53 pm 13:53 Cloudy with Mist and Fog 66 18.9 63 17.2 90 90 W 9 15 29.59 1002 2 3 0.01 0.25
2:00 pm 14:00 Cloudy 66 18.9 63 17.2 90 90 W 10 17 29.60 1002 10 16 0.00 0.00
2:15 pm 14:15 Cloudy 66 18.9 63 17.2 90 90 W 14 22 29.60 1002 10 16 0.00 0.00
2:53 pm 14:53 Cloudy 67 19.4 64 17.8 90 90 W 10 17 29.60 1002 10 16 0.00 0.00
3:53 pm 15:53 Cloudy with Mist and Fog 66 18.9 64 17.8 93 93 WNW 12 19 29.63 1003 4 6 0.00 0.00
4:53 pm 16:53 Cloudy 65 18.3 63 17.2 93 93 W 8 13 29.67 1005 10 16 0.00 0.00
5:09 pm 17:09 Cloudy 65 18.3 63 17.2 93 93 W 12 19 29.68 1005 9 14 0.00 0.00
5:53 pm 17:53 Cloudy 64 17.8 62 16.7 93 93 WSW 8 13 29.70 1006 10 16 0.00 0.00
6:53 pm 18:53 Cloudy 65 18.3 62 16.7 90 90 W 7 11 29.74 1007 10 16 0.00 0.00
7:00 pm 19:00 Cloudy 65 18.3 62 16.7 90 90 W 8 13 29.75 1007 10 16 0.00 0.00
8:00 pm 20:00 Cloudy 65 18.3 61 16.1 87 87 W 9 15 29.78 1008 10 16 0.00 0.00
8:53 pm 20:53 Cloudy 64 17.8 61 16.1 90 90 W 6 9 29.79 1009 10 16 0.00 0.00
9:53 pm 21:53 Cloudy 64 17.8 61 16.1 90 90 W 7 11 29.81 1010 10 16 0.00 0.00
10:53 pm 22:53 Cloudy 63 17.2 61 16.1 93 93 W 5 7 29.82 1010 8 13 0.00 0.00
11:44 pm 23:44 Cloudy 63 17.2 60 15.6 90 90 WSW 6 9 29.85 1011 10 16 0.00 0.00
11:53 pm 23:53 Cloudy 63 17.2 60 15.6 90 90 WSW 5 7 29.84 1010 10 16 0.00 0.00

Powered by AerisWeather